Satellite: NOAA-11 Catalog number: 19531 Epoch time: 11250.79555446 Element set: 0628 Inclination: 098.7475 deg RA of node: 336.6866 deg Eccentricity: 0.0010465 Arg of perigee: 316.3520 deg Mean anomaly: 043.6826 deg Mean motion: 14.14922997 rev/day Decay rate: 2.18e-06 rev/day^2 Epoch rev: 18443 Checksum: 323
Satellite: NOAA-12 Catalog number: 21263 Epoch time: 11250.96839517 Element set: 0136 Inclination: 098.7502 deg RA of node: 268.6632 deg Eccentricity: 0.0011806 Arg of perigee: 310.1026 deg Mean anomaly: 049.9119 deg Mean motion: 14.25735758 rev/day Decay rate: 3.7e-07 rev/day^2 Epoch rev: 05620 Checksum: 291
Satellite: MET-3/5 Catalog number: 21655 Epoch time: 11251.77518856 Element set: 203 Inclination: 082.5627 deg RA of node: 351.7117 deg Eccentricity: 0.0012432 Arg of perigee: 312.4679 deg Mean anomaly: 047.5410 deg Mean motion: 13.17032896 rev/day Decay rate: 5.1e-07 rev/day^2 Epoch rev: 96472 Checksum: 294
Satellite: MET-2/21 Catalog number: 22782 Epoch time: 11251.63302535 Element set: 197 Inclination: 082.5448 deg RA of node: 256.6713 deg Eccentricity: 0.0021327 Arg of perigee: 222.0852 deg Mean anomaly: 137.8662 deg Mean motion: 13.83660671 rev/day Decay rate: 4.7e-07 rev/day^2 Epoch rev: 91009 Checksum: 292
Satellite: OKEAN-4 Catalog number: 23317 Epoch time: 11251.75641679 Element set: 660 Inclination: 082.5402 deg RA of node: 295.1049 deg Eccentricity: 0.0021082 Arg of perigee: 199.0115 deg Mean anomaly: 161.0315 deg Mean motion: 14.83142077 rev/day Decay rate: 4.73e-06 rev/day^2 Epoch rev: 91293 Checksum: 279
Satellite: NOAA-14 Catalog number: 23455 Epoch time: 11250.90680950 Element set: 0625 Inclination: 098.8475 deg RA of node: 332.7051 deg Eccentricity: 0.0010124 Arg of perigee: 048.3166 deg Mean anomaly: 311.8870 deg Mean motion: 14.13830620 rev/day Decay rate: 2.6e-07 rev/day^2 Epoch rev: 86076 Checksum: 283
Satellite: NOAA-15 Catalog number: 25338 Epoch time: 11250.81216894 Element set: 0942 Inclination: 098.6635 deg RA of node: 235.8548 deg Eccentricity: 0.0010130 Arg of perigee: 207.7684 deg Mean anomaly: 152.2927 deg Mean motion: 14.24946420 rev/day Decay rate: -2.6e-07 rev/day^2 Epoch rev: 69249 Checksum: 315
Satellite: RESURS Catalog number: 25394 Epoch time: 11251.63855077 Element set: 887 Inclination: 098.3038 deg RA of node: 250.0809 deg Eccentricity: 0.0001991 Arg of perigee: 019.8859 deg Mean anomaly: 340.2397 deg Mean motion: 14.24238346 rev/day Decay rate: -2.2e-07 rev/day^2 Epoch rev: 68418 Checksum: 319
Satellite: FENGYUN1 Catalog number: 25730 Epoch time: 11250.91750039 Element set: 416 Inclination: 098.8227 deg RA of node: 210.3161 deg Eccentricity: 0.0024831 Arg of perigee: 081.0411 deg Mean anomaly: 279.3564 deg Mean motion: 14.08768168 rev/day Decay rate: 9.11e-06 rev/day^2 Epoch rev: 63471 Checksum: 281
Satellite: OKEAN-0 Catalog number: 25860 Epoch time: 11250.99063133 Element set: 0424 Inclination: 097.8943 deg RA of node: 215.2012 deg Eccentricity: 0.0001898 Arg of perigee: 073.2034 deg Mean anomaly: 286.9383 deg Mean motion: 14.73826298 rev/day Decay rate: 2.36e-06 rev/day^2 Epoch rev: 65285 Checksum: 308
Satellite: NOAA-16 Catalog number: 26536 Epoch time: 11250.73426205 Element set: 0425 Inclination: 099.1357 deg RA of node: 282.9319 deg Eccentricity: 0.0010976 Arg of perigee: 156.8272 deg Mean anomaly: 203.3398 deg Mean motion: 14.12640402 rev/day Decay rate: -6.3e-07 rev/day^2 Epoch rev: 56501 Checksum: 290
Satellite: NOAA-17 Catalog number: 27453 Epoch time: 11250.93101327 Element set: 0413 Inclination: 098.3732 deg RA of node: 286.8154 deg Eccentricity: 0.0010704 Arg of perigee: 267.1412 deg Mean anomaly: 092.8541 deg Mean motion: 14.24308309 rev/day Decay rate: 8.5e-07 rev/day^2 Epoch rev: 47843 Checksum: 286
Satellite: NOAA-18 Catalog number: 28654 Epoch time: 11250.96581591 Element set: 0891 Inclination: 099.0028 deg RA of node: 202.3461 deg Eccentricity: 0.0013539 Arg of perigee: 230.0846 deg Mean anomaly: 129.9123 deg Mean motion: 14.11508950 rev/day Decay rate: -7.9e-07 rev/day^2 Epoch rev: 32460 Checksum: 299
Satellite: NOAA-19 Catalog number: 33591 Epoch time: 11250.91054128 Element set: 0082 Inclination: 098.8306 deg RA of node: 189.6909 deg Eccentricity: 0.0015086 Arg of perigee: 101.5350 deg Mean anomaly: 258.7531 deg Mean motion: 14.11198593 rev/day Decay rate: -3.0e-08 rev/day^2 Epoch rev: 13305 Checksum: 292
/EX SB KEPS @ AMSAT $ORB11252.M Orbital Elements 11252.MISC
HR AMSAT ORBITAL ELEMENTS FOR MANNED AND MISCELLANEOUS SATELLITES FROM WA5QGD FORT WORTH,TX September 9, 2011 Send Subscribe/unsubscribe to KEPS at http://www.amsat.org/mailman/listinfo/keps BID: ORB11252.M TO ALL RADIO AMATEURS BT
Satellite: HUBBLE Catalog number: 20580 Epoch time: 11249.21412307 Element set: 831 Inclination: 028.4685 deg RA of node: 207.1079 deg Eccentricity: 0.0003124 Arg of perigee: 260.3951 deg Mean anomaly: 099.6471 deg Mean motion: 15.01483107 rev/day Decay rate: 1.252e-05 rev/day^2 Epoch rev: 97184 Checksum: 272
Satellite: ISS Catalog number: 25544 Epoch time: 11251.81166667 Element set: 29 Inclination: 051.6390 deg RA of node: 099.8394 deg Eccentricity: 0.0012166 Arg of perigee: 168.2630 deg Mean anomaly: 004.3741 deg Mean motion: 15.60883766 rev/day Decay rate: 6.4930e-04 rev/day^2 Epoch rev: 73396 Checksum: 316
Satellite: CO-58 Catalog number: 28895 Epoch time: 11250.64100617 Element set: 0969 Inclination: 097.9528 deg RA of node: 123.7905 deg Eccentricity: 0.0017374 Arg of perigee: 325.6829 deg Mean anomaly: 034.3236 deg Mean motion: 14.60162622 rev/day Decay rate: 4.09e-06 rev/day^2 Epoch rev: 31227 Checksum: 316
Satellite: FALCON Catalog number: 30776 Epoch time: 11250.97950719 Element set: 0182 Inclination: 035.4326 deg RA of node: 203.4647 deg Eccentricity: 0.0001476 Arg of perigee: 053.1398 deg Mean anomaly: 306.9465 deg Mean motion: 15.04899740 rev/day Decay rate: 2.283e-05 rev/day^2 Epoch rev: 24752 Checksum: 309
Satellite: MAST Catalog number: 31126 Epoch time: 11250.97234323 Element set: 0257 Inclination: 097.8915 deg RA of node: 273.5072 deg Eccentricity: 0.0093308 Arg of perigee: 273.3349 deg Mean anomaly: 085.7196 deg Mean motion: 14.53796387 rev/day Decay rate: 2.48e-06 rev/day^2 Epoch rev: 23311 Checksum: 310
Satellite: CAPE1 Catalog number: 31130 Epoch time: 11250.75979036 Element set: 0268 Inclination: 097.8971 deg RA of node: 269.9556 deg Eccentricity: 0.0100983 Arg of perigee: 285.1235 deg Mean anomaly: 073.8751 deg Mean motion: 14.52454370 rev/day Decay rate: 1.41e-06 rev/day^2 Epoch rev: 23262 Checksum: 306
Satellite: COMPASS Catalog number: 32787 Epoch time: 11250.68883902 Element set: 0088 Inclination: 097.8403 deg RA of node: 312.9425 deg Eccentricity: 0.0014539 Arg of perigee: 267.7864 deg Mean anomaly: 092.1673 deg Mean motion: 14.82580317 rev/day Decay rate: 1.391e-05 rev/day^2 Epoch rev: 18178 Checksum: 329
Satellite: AAUSAT2 Catalog number: 32788 Epoch time: 11251.65412340 Element set: 76 Inclination: 097.8402 deg RA of node: 314.1398 deg Eccentricity: 0.0014089 Arg of perigee: 264.7991 deg Mean anomaly: 095.1557 deg Mean motion: 14.82775689 rev/day Decay rate: 7.40e-06 rev/day^2 Epoch rev: 18194 Checksum: 329
Satellite: DO-64 Catalog number: 32789 Epoch time: 11251.63463101 Element set: 92 Inclination: 097.8500 deg RA of node: 315.2918 deg Eccentricity: 0.0014123 Arg of perigee: 261.9026 deg Mean anomaly: 098.0571 deg Mean motion: 14.83339089 rev/day Decay rate: 2.077e-05 rev/day^2 Epoch rev: 18195 Checksum: 306
Satellite: CO-66 Catalog number: 32791 Epoch time: 11250.72342282 Element set: 0080 Inclination: 097.8411 deg RA of node: 312.8887 deg Eccentricity: 0.0014856 Arg of perigee: 267.0980 deg Mean anomaly: 092.8534 deg Mean motion: 14.82243181 rev/day Decay rate: 5.68e-06 rev/day^2 Epoch rev: 18173 Checksum: 318
Satellite: RS-30 Catalog number: 32953 Epoch time: 11251.69488002 Element set: 68 Inclination: 082.4999 deg RA of node: 110.8165 deg Eccentricity: 0.0017996 Arg of perigee: 202.9769 deg Mean anomaly: 157.0505 deg Mean motion: 12.43014761 rev/day Decay rate: 1.0e-07 rev/day^2 Epoch rev: 14946 Checksum: 304
Satellite: TACSAT-3 Catalog number: 35001 Epoch time: 11250.83873894 Element set: 689 Inclination: 040.4530 deg RA of node: 029.9318 deg Eccentricity: 0.0018869 Arg of perigee: 107.2618 deg Mean anomaly: 253.0267 deg Mean motion: 15.51531357 rev/day Decay rate: 2.6456e-04 rev/day^2 Epoch rev: 12991 Checksum: 313
Satellite: PHARMSAT Catalog number: 35002 Epoch time: 11250.77478279 Element set: 0646 Inclination: 040.4698 deg RA of node: 028.6613 deg Eccentricity: 0.0020945 Arg of perigee: 111.3541 deg Mean anomaly: 248.9510 deg Mean motion: 15.50631720 rev/day Decay rate: 2.0526e-04 rev/day^2 Epoch rev: 12992 Checksum: 283
Satellite: HAWKSAT1 Catalog number: 35003 Epoch time: 11251.63447852 Element set: 754 Inclination: 040.4503 deg RA of node: 337.1747 deg Eccentricity: 0.0012424 Arg of perigee: 129.3579 deg Mean anomaly: 230.8356 deg Mean motion: 15.81317600 rev/day Decay rate: 2.18672e-03 rev/day^2 Epoch rev: 13056 Checksum: 280
Satellite: CP6 Catalog number: 35004 Epoch time: 11247.64656856 Element set: 784 Inclination: 040.4403 deg RA of node: 342.9642 deg Eccentricity: 0.0002956 Arg of perigee: 038.0069 deg Mean anomaly: 322.2231 deg Mean motion: 16.41039951 rev/day Decay rate: 1.6152067e-01 rev/day^2 Epoch rev: 13013 Checksum: 285
Satellite: METEOR-M Catalog number: 35865 Epoch time: 11251.61159624 Element set: 708 Inclination: 098.6978 deg RA of node: 305.6243 deg Eccentricity: 0.0002984 Arg of perigee: 134.5366 deg Mean anomaly: 225.6056 deg Mean motion: 14.21841779 rev/day Decay rate: 1.77e-06 rev/day^2 Epoch rev: 10244 Checksum: 313
